EW9066 Weather Reports


time (UTC)temp
F
wind
direction
speed
knots
gust
knots
rain 1hr
in
rain 24hr
in
rain mn
in
humidity
%
barometer
mb
20260502234530 70 89 1.7 6.1 0.00 0.00 0.00 21 1010.8
20260502233029 69 69 1.7 8.7 0.00 0.00 0.00 22 1010.9
20260502231527 68 84 2.6 7.0 0.00 0.00 0.00 22 1011.1
20260502230027 68 79 4.3 10.4 0.00 0.00 0.00 22 1011.2
20260502224526 69 108 0.0 6.1 0.00 0.00 0.00 22 1011.4
20260502223027 69 92 2.6 7.8 0.00 0.00 0.00 23 1011.6
20260502221527 69 84 2.6 7.0 0.00 0.00 0.00 23 1011.8
20260502220028 69 82 3.5 7.8 0.00 0.00 0.00 23 1012.0
20260502214525 68 77 1.7 9.6 0.00 0.00 0.00 25 1012.3
20260502213029 67 94 1.7 7.8 0.00 0.00 0.00 26 1012.4
20260502211525 70 347 4.3 7.0 0.00 0.00 0.00 23 1012.5
20260502210024 67 83 0.0 4.3 0.00 0.00 0.00 25 1012.8
20260502204527 68 53 0.9 9.6 0.00 0.00 0.00 25 1013.1
20260502203025 67 68 1.7 7.8 0.00 0.00 0.00 25 1013.1
20260502201524 68 66 3.5 7.8 0.00 0.00 0.00 25 1013.2
20260502200024 67 5 3.5 7.8 0.00 0.00 0.00 26 1013.4
20260502194524 65 82 3.5 8.7 0.00 0.00 0.00 27 1013.6
20260502193023 66 346 6.1 9.6 0.00 0.00 0.00 27 1013.7
20260502191522 65 78 0.9 6.1 0.00 0.00 0.00 27 1013.8
20260502190023 64 68 2.6 9.6 0.00 0.00 0.00 28 1014.0
20260502184528 64 84 1.7 8.7 0.00 0.00 0.00 28 1014.2
20260502183022 64 63 5.2 12.2 0.00 0.00 0.00 28 1014.3
20260502181521 63 87 5.2 12.2 0.00 0.00 0.00 28 1014.6
20260502163022 59 61 3.5 10.4 0.00 0.00 0.00 34 1014.9
20260502161515 59 63 6.1 12.2 0.00 0.00 0.00 34 1015.0
20260502151509 57 38 0.9 5.2 0.00 0.00 0.00 37 1015.2
20260502123001 50 167 4.3 8.7 0.00 0.00 0.00 52 1014.1
20260502121559 50 214 3.5 9.6 0.00 0.00 0.00 51 1014.0
20260502114558 50 342 7.0 22.6 0.00 0.00 0.00 50 1013.9
20260502113057 50 328 7.8 12.2 0.00 0.00 0.00 52 1013.9
20260502111556 49 180 0.0 2.6 0.00 0.00 0.00 51 1013.7
20260502110054 46 180 2.6 7.0 0.00 0.00 0.00 50 1013.9
20260502104552 38 106 0.9 3.5 0.00 0.00 0.00 58 1013.8
20260502103050 39 70 0.9 8.7 0.00 0.00 0.00 61 1013.8
20260502101548 41 178 0.0 0.0 0.00 0.00 0.00 52 1012.8
20260502071533 48 178 2.6 4.3 0.00 0.00 0.00 37 1012.3
20260502070034 48 178 1.7 4.3 0.00 0.00 0.00 35 1012.2
20260502064532 49 178 0.0 3.5 0.00 0.00 0.00 35 1012.3
20260502063027 49 178 0.9 3.5 0.00 0.00 0.00 33 1012.1
20260502061525 51 178 1.7 5.2 0.00 0.00 0.00 30 1012.0
20260502060022 49 177 0.0 1.7 0.00 0.00 0.00 32 1012.0
20260502054520 52 177 2.6 5.2 0.00 0.00 0.00 28 1011.9
20260502053019 51 177 1.7 4.3 0.00 0.00 0.00 28 1011.7
20260502051517 51 177 0.0 1.7 0.00 0.00 0.00 29 1011.8
20260502050015 52 177 0.0 2.6 0.00 0.00 0.00 28 1011.8
20260502044514 52 177 1.7 5.2 0.00 0.00 0.00 28 1011.7
20260502043017 52 178 1.7 5.2 0.00 0.00 0.00 27 1011.6
20260502041517 53 178 0.0 2.6 0.00 0.00 0.00 27 1011.6
20260502040009 55 178 0.0 2.6 0.00 0.00 0.00 26 1011.5
20260502034509 57 178 0.0 5.2 0.00 0.00 0.00 24 1011.5
20260502033006 57 178 2.6 6.1 0.00 0.00 0.00 24 1011.1
20260502031502 57 176 2.6 5.2 0.00 0.00 0.00 26 1010.9
20260502030058 59 176 0.9 3.5 0.00 0.00 0.00 23 1010.8
20260502024606 64 176 4.3 9.6 0.00 0.00 0.00 20 1010.5
20260502023058 64 172 4.3 7.0 0.00 0.00 0.00 18 1010.3
20260502021555 62 169 4.3 6.1 0.00 0.00 0.00 23 1010.2
20260502020052 68 168 1.7 3.5 0.00 0.00 0.00 19 1010.2
20260502014550 72 168 1.7 6.1 0.00 0.00 0.00 15 1010.2
20260502013044 74 172 1.7 4.3 0.00 0.00 0.00 14 1010.2
20260502011544 74 172 1.7 5.2 0.00 0.00 0.00 14 1010.2
20260502010045 74 171 2.6 6.1 0.00 0.00 0.00 14 1010.3
20260502004541 75 173 1.7 7.0 0.00 0.00 0.00 14 1010.5
20260502003039 75 175 2.6 4.3 0.00 0.00 0.00 15 1010.7
20260502001541 76 174 2.6 9.6 0.00 0.00 0.00 15 1010.8
20260502000038 75 155 1.7 9.6 0.00 0.00 0.00 13 1010.8